Showing default

LEMUR 2 LANGER2SPACE, 63358

Orbit data source: Space-Track

LEMUR 2 LANGER2SPACE, 63358 is a payload satellite owned by OroraTech (US) in SSO that was launched on Wed, 26 Mar 2025 UTC via an ELECTRON launch vehicle from the Rocket Lab Launch Complex (RLLC). Payload-class satellites include a variety of spacecraft equipped with specific instruments for various scientific and technological missions. These include communications satellites like Starlink; space stations such as the ISS; scientific satellites like the Hubble; Earth observation satellites from companies like Planet Labs, Umbra, and HawkEye 360; GPS; miniature CubeSats for education and research; and military/defense satellites.

Loading next visibility...
Identifier
63358, 2025-061H
Orbit
SSO
Country
Flag of USUS
Related business
Manufacturer
Spire/Glasgow
Mission
Operational Commercial Imaging
Bus & Motor
CUBESAT 6U, Unknown motor
Mass
~15 kg wet, ~15 kg dry
Launch date (UTC)
2025-03-26 (6 months ago)
Launch vehicle
ELECTRON
Launch site
Rocket Lab Launch Complex (RLLC)
Object type
Payload
Rocket body
Debris
Shape & HBR
Box + 2 Pan, 0.2 m
Radar Cross Section
0.065 m², Medium (>0.1 m² and < 1m²)

Expand to show TLE details & history
Last TLE update: 13 hours ago

TLE from 13 hours ago
0 LEMUR 2 LANGER2SPACE
1 63358U 25061H   25260.92144110  .00004851  00000-0  29255-3 0  9990
2 63358  97.5299 234.4750 0020059 113.1199 247.2148 15.11047014 26453
Epoch: 2025-09-17T22:06Z
TLE epoch observation values (Epoch: 2025-09-17T22:06:52.511Z)
Latitude
0.00005°
Longitude
-94.33426°
Altitude
541.474 km
Speed
7.589 km/s
True Right ascension
15h 37m 53s
True Declination
0° 00' 00"
Sunlit
Object was in daylight at epoch
Visualization orbit readout
Latitude
Unknown
Longitude
Unknown
Altitude
Unknown
Speed
Unknown
Apparent Right ascension
Unknown
Apparent Declination
Unknown
Sunlit
N/A
Visualization observer readout
Local Sidereal Time
03:59:59
Azimuth
Unknown
Elevation
Unknown
Doppler factor
Unknown
Orbital elements
Apogee altitude
543.846 km
Perigee altitude
516.132 km
Semi-major axis
6,908.126 km
Eccentricity
0.00201
Inclination
97.5299°
RAAN
234.475°
Arg. of periapsis
113.1199°
True anomaly
247.00308°
Mean anomaly
247.2148°
Eccentric anomaly
247.10892°
Mean motion
3.7801 °/min
Orbital period
95.24 mins
BSTAR
0.00029255
Loading maneuver chart data...
Computing Atmospheric mass density...
Loading historical data...
Loading historical data...
Loading historical data...
Loading historical data...
Loading historical data...
Loading historical data...
Loading historical data...

Documentation

Showing up to 5 results
|